Falls City, NE

8:12 PM CST on December 03, 2016 (GMT -0600)
Brenner

Weather History for KFNB - September, 2012

Change the Weather History Date:

Saturday, September 8, 2012

  Actual Average Record
Temperature  
Mean Temperature 64 °F -  
Max Temperature 82 °F 84 °F 100 °F (1955)
Min Temperature 46 °F 58 °F 39 °F (1986)
Degree Days  
Heating Degree Days 1    
Growing Degree Days 14 (Base 50)    
Moisture  
Dew Point 45 °F    
Average Humidity 57    
Maximum Humidity 90    
Minimum Humidity 21    
Precipitation  
Precipitation 0.00 in - - ()
Sea Level Pressure  
Sea Level Pressure 30.08 in    
Wind  
Wind Speed 6 mph (WNW)    
Max Wind Speed 14 mph    
Max Gust Speed 21 mph    
Visibility 10 miles    
Events      
Averages and records for this station are not official NWS values.
T = Trace of Precipitation, MM = Missing Value Source: NWS Daily Summary

Daily Weather History Graph

Daily Weather History Graph

Search for Another Location

Airport or City:

Trip Planner

Search our weather history database for the weather conditions in past years. The results will help you decide how hot, cold, wet, or windy it might be!

Date:

Astronomy

Sep. 08, 2012 Rise Set
Actual Time 6:57 AM CDT 7:41 PM CDT
Civil Twilight 6:29 AM CDT 8:09 PM CDT
Nautical Twilight 5:57 AM CDT 8:41 PM CDT
Astronomical Twilight 5:23 AM CDT 9:15 PM CDT
Moon No Moon Rise 2:39 PM CDT (9/8)
Length of Visible Light 13h 39m
Length of Day
12h 44m
Waning Gibbous, 48% of the Moon is Illuminated
Sep 8
Waning Gibbous
Sep 15
New
Sep 22
First Quarter
Sep 29
Full
Oct 8
Last Quarter

Hourly Weather History & Observations

Time (CDT) Temp. Dew Point Humidity Pressure Visibility Wind Dir Wind Speed Gust Speed Precip Events Conditions
12:53 AM 55.0 °F 48.0 °F 77% 30.11 in 10.0 mi NNW 4.6 mph - N/A   Clear
1:53 AM 52.0 °F 46.9 °F 83% 30.13 in 10.0 mi NW 3.5 mph - N/A   Clear
2:53 AM 50.0 °F 46.0 °F 86% 30.14 in 10.0 mi WNW 4.6 mph - N/A   Clear
3:53 AM 50.0 °F 46.0 °F 86% 30.14 in 10.0 mi NW 4.6 mph - N/A   Clear
4:53 AM 48.9 °F 45.0 °F 86% 30.14 in 10.0 mi WNW 4.6 mph - N/A   Clear
5:53 AM 48.0 °F 44.1 °F 86% 30.14 in 10.0 mi NW 4.6 mph - N/A   Clear
6:53 AM 46.9 °F 44.1 °F 90% 30.15 in 10.0 mi WNW 6.9 mph - N/A   Clear
7:53 AM 50.0 °F 45.0 °F 83% 30.17 in 10.0 mi NW 3.5 mph - N/A   Clear
8:53 AM 55.0 °F 46.9 °F 74% 30.18 in 10.0 mi NW 6.9 mph - N/A   Clear
9:53 AM 63.0 °F 51.1 °F 65% 30.17 in 10.0 mi Variable 5.8 mph - N/A   Clear
10:53 AM 68.0 °F 48.0 °F 49% 30.16 in 10.0 mi WNW 8.1 mph - N/A   Clear
11:53 AM 72.0 °F 46.9 °F 41% 30.14 in 10.0 mi WNW 10.4 mph 17.3 mph N/A   Clear
12:53 PM 75.0 °F 45.0 °F 34% 30.11 in 10.0 mi WNW 9.2 mph 20.7 mph N/A   Clear
1:53 PM 78.1 °F 45.0 °F 31% 30.09 in 10.0 mi WNW 11.5 mph 18.4 mph N/A   Clear
2:53 PM 80.1 °F 44.1 °F 28% 30.05 in 10.0 mi WNW 13.8 mph 18.4 mph N/A   Clear
3:53 PM 81.0 °F 42.1 °F 25% 30.01 in 10.0 mi NW 10.4 mph - N/A   Clear
4:53 PM 82.0 °F 39.9 °F 22% 29.99 in 10.0 mi WNW 5.8 mph - N/A   Clear
5:53 PM 81.0 °F 37.9 °F 21% 29.98 in 10.0 mi NW 12.7 mph 17.3 mph N/A   Clear
6:53 PM 78.1 °F 43.0 °F 29% 29.97 in 10.0 mi WNW 5.8 mph - N/A   Clear
7:53 PM 73.0 °F 42.1 °F 33% 29.96 in 10.0 mi WSW 5.8 mph - N/A   Clear
8:53 PM 66.9 °F 45.0 °F 45% 29.98 in 10.0 mi SW 5.8 mph - N/A   Clear
9:53 PM 63.0 °F 46.9 °F 56% 29.98 in 10.0 mi Calm Calm - N/A   Clear
10:53 PM 57.9 °F 46.9 °F 67% 29.98 in 10.0 mi WNW 3.5 mph - N/A   Clear
11:53 PM 60.1 °F 46.0 °F 60% 30.01 in 10.0 mi NW 6.9 mph - N/A   Clear